[[{"header":{"parameterUnit":"m.s-1","parameterCategory":1,"la1":30.2992,"la2":30.254,"lo1":-89.0895,"lo2":-89.0443,"dy":0.0025,"dx":0.0025,"nx":19,"ny":19,"refTime":"2026-05-08T03:00:00:Z","depth":0,"parameterNumber":2,"parameterNumberName":"U-component_of_WINDS"},"data":[0,0,0,1.4098,1.41,1.4176,1.4176,1.4276,1.4276,0,0,0,0,0,0,0,0,0,0,0,1.4075,1.4076,1.4098,1.41,1.4176,1.4176,1.4275,1.4276,0,0,0,0,0,0,0,0,0,0,0,1.4075,1.4076,1.4077,1.41,1.4176,1.4176,1.4275,1.4217,0,0,0,0,0,0,0,0,0,0,1.4143,1.4122,1.4076,1.4077,1.4101,1.4175,1.4176,1.4215,1.4221,1.4242,0,1.4259,0,1.4269,1.4283,1.4283,0,0,0,1.41,1.4116,1.4137,1.4077,1.4101,1.4175,1.4142,1.4218,1.4225,1.425,1.426,1.4264,1.4271,1.4284,1.4284,1.44,1.4401,0,0,1.4096,1.4089,1.4132,1.4142,1.4128,1.4139,1.4144,1.4223,1.4233,1.426,1.4266,1.4272,1.4284,1.4285,1.44,1.4401,0,0,0,1.4084,1.4086,1.4105,1.4138,1.4151,1.4141,1.4147,1.423,1.4236,1.4267,1.4274,1.4285,1.4286,1.4399,1.44,1.4419,0,0,0,1.4081,1.4079,1.4103,1.4099,1.415,1.4191,1.4152,1.4231,1.424,1.4273,1.4285,1.4287,1.4399,1.44,1.4417,1.4429,0,0,0,1.4071,1.4078,1.4088,1.4099,1.4131,1.419,1.4201,1.4233,1.4244,1.4284,1.4287,1.4398,1.44,1.4416,1.4426,1.4458,0,0,0,1.4057,1.4104,1.4089,1.4143,1.413,1.4201,1.4201,1.4253,1.4289,1.4286,1.4399,1.44,1.4415,1.4425,1.4456,1.4483,1.4493,0,0,1.4112,1.411,1.4143,1.4132,1.4202,1.419,1.4264,1.4304,1.4315,1.4372,1.4375,1.4418,1.4426,1.4457,1.4554,1.4562,0,0,0,1.4158,1.4181,1.4202,1.4236,1.4267,1.4296,1.4326,1.4341,1.439,1.4342,1.4438,1.4443,1.4462,1.4475,1.4482,1.4499,1.4406,1.4406,1.4406,1.4224,1.4236,1.4291,1.4313,1.4346,1.4377,1.4406,1.4432,1.4434,1.4457,1.4473,1.4531,1.4546,1.4551,1.4568,1.4489,1.4489,1.4489,1.4489,1.4305,1.434,1.4343,1.4398,1.4411,1.4458,1.4491,1.4491,1.4538,1.4518,1.4536,1.4513,1.4559,1.4575,1.449,1.449,1.449,1.449,1.449,1.4349,1.4368,1.4387,1.4439,1.4478,1.4499,1.4544,1.4555,1.4565,1.4582,1.4601,1.4601,1.4602,1.4591,1.4591,1.4591,1.4591,1.4591,1.4591,1.4387,1.4407,1.4444,1.4483,1.4508,1.4542,1.4576,1.4601,1.4631,1.4635,1.4636,1.4636,1.4562,1.4543,1.4594,1.4594,1.4594,1.4593,1.4593,1.4464,1.4449,1.4504,1.4529,1.4578,1.4618,1.4632,1.4682,1.4704,1.4727,1.4724,1.4668,1.4667,1.4661,1.4646,1.4721,1.4721,1.4721,1.4721,1.4501,1.4502,1.4562,1.4602,1.4641,1.466,1.4725,1.4754,1.478,1.4796,1.4787,1.4767,1.4761,1.4764,1.4756,1.4742,1.4839,1.484,1.484,1.4549,1.4555,1.4606,1.4633,1.4673,1.4708,1.4769,1.4816,1.4843,1.4845,1.4808,1.4803,1.4772,1.4761,1.4759,1.4747,1.4721,0,0]},{"header":{"parameterUnit":"m.s-1","parameterCategory":1,"la1":30.2992,"la2":30.254,"lo1":-89.0895,"lo2":-89.0443,"dy":0.0025,"dx":0.0025,"nx":19,"ny":19,"refTime":"2026-05-08T03:00:00:Z","depth":0,"parameterNumber":3,"parameterNumberName":"V-component_of_WINDS"},"data":[0,0,0,3.3916,3.3918,3.3989,3.3989,3.4068,3.4069,0,0,0,0,0,0,0,0,0,0,0,3.389,3.3891,3.3916,3.3918,3.3989,3.3989,3.4068,3.4069,0,0,0,0,0,0,0,0,0,0,0,3.389,3.389,3.3891,3.3918,3.3989,3.3989,3.4068,3.4018,0,0,0,0,0,0,0,0,0,0,3.3951,3.3922,3.389,3.3891,3.3919,3.3989,3.3989,3.4016,3.4021,3.4032,0,3.4042,0,3.4057,3.4074,3.4074,0,0,0,3.3921,3.3918,3.3942,3.3891,3.3919,3.3989,3.3958,3.4019,3.4025,3.4039,3.4043,3.4046,3.4058,3.4074,3.4074,3.413,3.413,0,0,3.3917,3.39,3.3938,3.3945,3.3936,3.3955,3.396,3.4023,3.4025,3.4043,3.4048,3.4059,3.4075,3.4075,3.413,3.413,0,0,0,3.3904,3.3897,3.392,3.3942,3.3956,3.3957,3.3963,3.4022,3.4031,3.4049,3.406,3.4075,3.4076,3.413,3.413,3.412,0,0,0,3.3901,3.3889,3.3918,3.3907,3.3955,3.399,3.3961,3.4027,3.4035,3.406,3.4075,3.4077,3.413,3.413,3.412,3.4117,0,0,0,3.3887,3.3887,3.3896,3.3906,3.3937,3.399,3.4003,3.4029,3.4041,3.4074,3.4077,3.413,3.413,3.412,3.4117,3.4127,0,0,0,3.3866,3.3884,3.3896,3.392,3.3936,3.3984,3.4003,3.4038,3.4065,3.4075,3.413,3.413,3.412,3.4118,3.4127,3.4133,3.4133,0,0,3.3879,3.3885,3.3901,3.3914,3.3955,3.3974,3.4014,3.4053,3.4071,3.4109,3.411,3.412,3.4117,3.4127,3.4143,3.4144,0,0,0,3.39,3.3911,3.3926,3.3952,3.3984,3.4011,3.4047,3.4062,3.4096,3.4088,3.4127,3.4126,3.4132,3.4135,3.4136,3.4142,3.4131,3.4131,3.4131,3.3892,3.3916,3.3944,3.3977,3.4002,3.404,3.4061,3.4087,3.4102,3.4111,3.4122,3.4129,3.4133,3.4133,3.414,3.4127,3.4127,3.4127,3.4127,3.3914,3.3934,3.3956,3.3991,3.4015,3.4044,3.408,3.409,3.412,3.4123,3.4129,3.413,3.4133,3.414,3.4126,3.4126,3.4126,3.4127,3.4127,3.3912,3.3926,3.3945,3.3986,3.4014,3.4045,3.4073,3.4094,3.4113,3.412,3.4134,3.4134,3.4137,3.4125,3.4125,3.4125,3.4125,3.4125,3.4125,3.3902,3.3924,3.3947,3.3984,3.4003,3.4032,3.407,3.4089,3.4116,3.4128,3.4128,3.4142,3.4129,3.4125,3.4126,3.4126,3.4126,3.4126,3.4126,3.3915,3.3916,3.395,3.397,3.4015,3.4042,3.4068,3.4106,3.4125,3.4137,3.415,3.4137,3.4144,3.4144,3.4141,3.4146,3.4146,3.4146,3.4146,3.3913,3.3919,3.396,3.3991,3.4023,3.4051,3.4087,3.4117,3.4147,3.416,3.4162,3.416,3.4159,3.4166,3.4166,3.4163,3.4173,3.4173,3.4173,3.3922,3.3933,3.3961,3.3993,3.403,3.4061,3.4096,3.4128,3.4163,3.4175,3.417,3.4169,3.4166,3.4163,3.4175,3.4173,3.4169,0,0]}]]